Location: McDonald Observatory
(30.6717°N, 104.0221°W)
Time: 19:37:17
(UTC-05:00)

Daily predictions for brighter satellites

Satellite Brightness Start Highest point End
(mag) Time Altitude Azimuth Time Altitude Azimuth Time Altitude Azimuth
Milstar 3 4.3 21:01:36 10° SW 21:16:58 47° SSE 21:25:22 10° E
Cosmos 1869 3.6 21:15:59 10° N 21:19:57 73° W 21:23:55 10° S
ASTRO F (AKARI) 4.5 21:18:43 10° NNE 21:22:12 70° ESE 21:25:51 10° S
Lacrosse 5 rocket 1.8 21:20:36 10° S 21:23:45 29° ESE 21:26:53 10° ENE
Cosmos 192 4.4 21:19:03 10° NNW 21:24:02 83° ENE 21:28:59 10° SSE
Delta 168 3.4 21:21:50 10° WSW 21:24:57 35° S 21:28:59 10° ESE
Cosmos 2369 Rocket 3.1 21:20:24 10° SSE 21:25:02 27° ESE 21:29:42 10° NE
Resurs 1-3 3.8 21:21:23 10° SSE 21:25:39 54° ENE 21:29:56 10° N
NOSS 3-2 (C) 3.4 21:23:53 10° SSW 21:29:44 87° ESE 21:36:05 10° NNE
Cosmos 1939 Rocket 4.2 21:26:40 10° SE 21:30:00 24° ENE 21:33:20 10° NNE
Cosmos 1470 Rocket 3.6 21:26:48 10° S 21:31:15 74° E 21:35:43 10° N
Cosmos 1346 Rocket 4.4 21:30:40 10° NNE 21:33:26 18° ENE 21:35:54 11° ESE
Cosmos 1933 3.6 21:31:20 10° N 21:35:13 46° E 21:39:03 10° SSE
Envisat 3.4 21:31:14 10° SE 21:36:03 45° ENE 21:40:52 10° N
Cosmos 1898 Rocket 4.0 21:33:05 10° SSW 21:38:19 66° WNW 21:43:37 10° N
ISS -3.7 21:35:14 10° SW 21:38:28 76° NW 21:41:42 10° NE
Cosmos 2112 Rocket 4.2 21:34:16 10° NNW 21:39:37 80° WSW 21:44:57 10° S
OAO 3 Copernicus 4.5 21:36:00 10° SW 21:40:52 53° SSE 21:45:46 10° ENE
Cosmos 990 Rocket 3.9 21:35:58 10° S 21:41:07 76° ESE 21:46:21 10° NNE
Cosmos 1680 Rocket 4.0 21:36:34 10° NNW 21:41:50 63° WSW 21:47:03 10° S
CENTAUR R/B 2.9 21:42:40 10° S 21:47:49 34° ESE 21:53:27 10° NE
YAOGAN 6 3.9 21:47:12 15° ESE 21:49:18 25° ENE 21:52:22 10° NNE
USA 186 1.5 21:49:45 10° S 21:52:15 67° W 21:54:56 10° NNW
Tiangong 2 3.7 21:53:08 10° NNW 21:55:08 15° NNE 21:57:08 10° NE
Delta 7925 Rocket 4.4 21:51:40 10° SW 21:55:40 26° SSE 21:58:21 18° ESE
Tsikada Rocket 4.1 21:49:31 10° S 21:55:47 82° W 22:02:00 10° N
Hubble Space Telescope 1.9 21:55:19 10° W 21:59:00 31° SSW 22:01:13 19° SSE
GPS 2-04 Rocket1 3.8 21:58:17 10° WNW 22:01:49 38° N 22:05:11 10° ENE
Aureole 3 4.0 22:03:46 23° E 22:03:46 23° E 22:06:08 10° NE
COSMOS 2487 3.3 22:00:48 10° NNW 22:04:15 50° WSW 22:07:37 10° S
Meteor 2-3 Rocket 3.7 22:00:55 10° S 22:06:41 86° E 22:12:23 10° N
Meteor 2-10 Rocket 4.1 22:02:34 10° NNW 22:08:22 68° W 22:14:04 10° S
GPS 2-17 Rocket1 4.4 22:05:33 10° SW 22:08:54 21° S 22:09:58 19° SSE
CZ-4B DEB 3.4 22:09:45 30° E 22:10:04 31° ENE 22:12:41 10° N
OAO 2 Rocket 3.2 22:05:05 10° WNW 22:10:10 87° SSW 22:13:06 25° ESE
Helios 1B rocket 2.3 22:06:48 10° NNE 22:10:55 82° E 22:15:00 10° S
Meteor 1-26 Rocket 4.2 22:08:05 10° N 22:13:47 82° E 22:18:50 14° S
H-2A R/B 3.9 22:13:15 13° E 22:14:32 14° ENE 22:17:20 10° NE
Cosmos 1408 3.6 22:16:29 28° E 22:16:29 28° E 22:19:42 10° NNE
Cosmos 2082 Rocket 3.7 22:14:51 10° NW 22:19:53 34° WSW 22:24:55 10° SSW
Cosmos 1825 3.0 22:20:37 30° E 22:20:37 30° E 22:23:52 10° NNE
Cosmos 1634 Rocket 4.1 22:15:12 10° N 22:21:24 59° E 22:25:25 23° SSE
Meteor 1-29 2.9 22:19:49 10° N 22:23:19 84° WNW 22:25:58 16° SSW
SL-19 R/B 4.4 22:20:55 15° S 22:25:36 80° WSW 22:31:35 10° NNW
Shenzhou-11 Module 3.6 22:23:41 10° NW 22:26:19 25° NNE 22:27:00 23° NE
Resurs 01 Rocket 3.9 22:25:36 10° SSW 22:29:00 22° W 22:32:25 10° NW
Cosmos 1833 Rocket 4.5 22:26:10 10° NW 22:30:51 27° WSW 22:35:30 10° SSW
FUSE 4.3 22:29:02 10° WSW 22:34:05 45° S 22:35:21 38° SE
Helios 1A 3.2 22:32:31 26° S 22:34:45 67° WSW 22:38:56 10° NNW
Aurora 2 Rocket 3.9 22:33:19 10° WSW 22:37:15 22° SSW 22:37:40 22° SSW
Star 37E S/N 40062 3.7 22:35:13 10° W 22:37:34 55° S 22:37:53 53° SSE
Delta 2 Rocket 4.4 22:34:41 10° W 22:41:13 58° S 22:44:29 34° SE
MetOp-A 4.2 22:43:08 41° SE 22:44:43 58° ENE 22:49:58 10° N
ERS-1 Rocket 2.9 22:43:27 43° SE 22:45:02 71° ENE 22:50:03 10° N
COSMOS 2455 4.1 22:41:30 10° SW 22:47:09 42° WNW 22:52:51 10° N
Cosmos 2344 3.5 22:41:29 10° SSW 22:49:14 71° ESE 22:57:08 10° NE
Cosmos 1943 Rocket 2.1 22:45:01 10° SSW 22:50:37 88° WNW 22:56:13 10° NNE
Cosmos 2279 Rocket 3.9 22:50:10 10° N 22:56:23 66° E 22:58:10 46° SE
NOAA 11 4.1 22:55:24 43° S 22:57:18 87° WSW 23:02:49 10° NNW
Cosmos 1340 4.0 22:58:31 10° N 23:00:50 30° NNE 23:00:50 30° NNE
Lacrosse 5 rocket 4.0 23:00:30 10° W 23:02:55 17° NW 23:05:23 10° N
Okean 1-7 3.2 23:01:21 10° NNW 23:05:44 69° W 23:06:11 63° SW
Cosmos 2369 Rocket 3.9 23:03:53 10° SW 23:08:51 31° WNW 23:13:52 10° N
USA 215 3.6 23:06:57 39° E 23:09:03 53° NE 23:15:24 10° NNW
Cosmos 2180 Rocket 4.4 23:05:14 10° N 23:11:38 73° E 23:12:51 58° SE
SPOT 1/Viking Rocket 3.8 23:12:30 51° ENE 23:12:30 51° ENE 23:17:23 10° N
SL-08 RB Rocket 3.8 23:13:08 66° NE 23:13:08 66° NE 23:17:27 10° N
Cosmos 1606 3.4 23:09:30 10° N 23:12:27 51° NNW 23:12:27 51° NNW
Cosmos 468 4.4 23:15:46 10° NNW 23:21:00 76° WSW 23:21:18 73° SW
Cosmos 1733 Rocket 3.9 23:22:56 44° NNE 23:22:56 44° NNE 23:25:55 10° N
Terra 3.3 23:28:42 26° NE 23:28:42 26° NE 23:31:26 10° N
Cosmos 1269 Rocket 4.0 23:24:19 10° NNW 23:29:12 74° NNE 23:29:12 74° NNE
Meteor 1-27 Rocket 3.6 23:26:02 10° N 23:31:39 82° NE 23:31:39 82° NE
Tiangong 2 4.0 23:29:15 10° NW 23:30:10 18° NW 23:30:10 18° NW
SPOT 5 3.3 23:37:58 62° WSW 23:38:02 62° WSW 23:43:20 10° NNW
CENTAUR R/B 4.2 23:33:09 10° WSW 23:38:21 31° NW 23:44:08 10° N
ATLAS 5 CENTAUR R/B 2.6 23:34:53 10° NNW 23:41:01 62° ENE 23:41:01 62° ENE
Intercosmos 25 Rocket 4.5 23:37:28 10° N 23:42:50 57° NNE 23:42:50 57° NNE
Meteor 2-20 4.4 23:47:33 82° N 23:47:33 82° N 23:53:23 10° N
ARGOS 4.0 23:47:52 41° WSW 23:48:08 41° W 23:53:12 10° NNW
Cosmos 1656 Rocket 4.0 23:51:20 59° WNW 23:51:20 59° WNW 23:56:39 10° NNE
H-2A R/B 2.6 23:53:53 56° WNW 23:53:53 56° WNW 23:58:42 10° NNW
